N3PB Weather Reports


time (UTC)temp
C
wind
direction
speed
KPH
gust
KPH
rain 1hr
cm
rain 24hr
cm
rain mn
cm
humidity
%
barometer
mb
20260508102136 2 255 0.0 0.0 0.00 0.05 0.00 86 1015.4
20260508101636 2 255 0.0 0.0 0.00 0.05 0.00 86 1015.2
20260508101142 2 255 0.0 0.0 0.00 0.05 0.00 86 1015.2
20260508100639 2 255 0.0 0.0 0.00 0.05 0.00 86 1015.2
20260508100136 2 221 0.0 0.0 0.00 0.05 0.00 86 1015.3
20260508095645 2 221 0.0 0.0 0.00 0.05 0.00 86 1015.2
20260508095136 2 221 0.0 0.0 0.00 0.05 0.00 86 1015.2
20260508094636 2 221 0.0 0.0 0.00 0.05 0.00 87 1015.1
20260508094139 2 221 0.0 0.0 0.00 0.05 0.00 87 1015.1
20260508093639 2 221 0.0 0.0 0.00 0.05 0.00 87 1015.0
20260508093136 2 221 0.0 0.0 0.00 0.05 0.00 86 1015.1
20260508092636 2 221 0.0 0.0 0.00 0.05 0.00 85 1015.1
20260508092139 2 221 0.0 0.0 0.00 0.05 0.00 85 1015.1
20260508091636 2 221 0.0 0.0 0.00 0.05 0.00 84 1015.2
20260508091136 3 221 0.0 0.0 0.00 0.05 0.00 84 1015.1
20260508090636 3 221 0.0 0.0 0.00 0.05 0.00 84 1014.9
20260508090136 3 221 0.0 0.0 0.00 0.05 0.00 84 1015.0
20260508085636 3 221 0.0 0.0 0.00 0.05 0.00 84 1015.0
20260508085142 3 221 0.0 0.0 0.00 0.05 0.00 84 1015.0
20260508084639 3 221 0.0 0.0 0.00 0.05 0.00 83 1015.0
20260508084136 3 221 0.0 0.0 0.00 0.05 0.00 83 1015.0
20260508083642 3 221 0.0 0.0 0.00 0.05 0.00 83 1015.1
20260508083136 3 221 0.0 0.0 0.00 0.05 0.00 82 1015.1
20260508082639 3 221 0.0 0.0 0.00 0.05 0.00 81 1015.0
20260508082142 3 221 0.0 0.0 0.00 0.05 0.00 82 1015.0
20260508081637 3 221 0.0 0.0 0.00 0.05 0.00 81 1015.0
20260508081139 3 221 0.0 0.0 0.00 0.05 0.00 81 1014.8
20260508080636 4 221 0.0 0.0 0.00 0.05 0.00 81 1015.0
20260508080139 4 221 0.0 0.0 0.00 0.05 0.00 80 1014.9
20260508075642 4 221 0.0 0.0 0.00 0.05 0.00 80 1014.8
20260508075136 4 221 0.0 0.0 0.00 0.05 0.00 81 1015.0
20260508074645 4 221 0.0 0.0 0.00 0.05 0.00 80 1015.0
20260508074139 5 221 0.0 0.0 0.00 0.05 0.00 79 1015.0
20260508073642 5 221 0.0 0.0 0.00 0.05 0.00 79 1014.9
20260508073136 5 221 0.0 0.0 0.00 0.05 0.00 78 1014.7
20260508072636 5 221 0.0 0.0 0.00 0.05 0.00 78 1014.6
20260508072136 5 221 0.0 0.0 0.00 0.05 0.00 78 1014.7
20260508071636 5 221 0.0 0.0 0.00 0.05 0.00 77 1014.7
20260508071136 5 221 0.0 0.0 0.00 0.05 0.00 77 1014.7
20260508070639 5 221 0.0 0.0 0.00 0.05 0.00 77 1014.7
20260508070140 6 221 0.0 0.0 0.00 0.05 0.00 76 1014.8
20260508065636 6 221 0.0 0.0 0.00 0.05 0.00 76 1014.8
20260508065139 6 221 0.0 0.0 0.00 0.05 0.00 75 1014.7
20260508064636 6 221 0.0 0.0 0.00 0.05 0.00 76 1014.7
20260508064136 6 221 0.0 0.0 0.00 0.05 0.00 75 1014.7
20260508063636 6 221 0.0 0.0 0.00 0.05 0.00 75 1014.8
20260508063136 7 221 0.0 0.0 0.00 0.05 0.00 75 1014.7
20260508062636 6 221 0.0 0.0 0.00 0.05 0.00 78 1014.7
20260508062145 6 221 0.0 0.0 0.00 0.05 0.00 73 1014.8
20260508061642 6 221 0.0 0.0 0.00 0.05 0.00 74 1014.8
20260508061142 6 221 0.0 0.0 0.00 0.05 0.00 74 1014.6
20260508060639 6 259 0.0 0.0 0.00 0.05 0.00 75 1014.7
20260508060136 6 258 0.0 0.0 0.00 0.05 0.00 77 1014.8
20260508055639 6 258 0.0 0.0 0.00 0.05 0.00 79 1014.8
20260508055139 6 257 0.0 0.0 0.00 0.05 0.00 79 1014.8
20260508054636 6 257 0.0 0.0 0.00 0.05 0.00 80 1014.7
20260508054139 6 257 0.0 0.0 0.00 0.05 0.00 81 1014.7
20260508053636 6 257 0.0 0.0 0.00 0.05 0.00 80 1014.8
20260508053139 6 257 0.0 0.0 0.00 0.05 0.00 80 1014.6
20260508052639 6 257 0.0 0.0 0.00 0.05 0.00 80 1014.6
20260508052139 6 256 0.0 0.0 0.00 0.05 0.00 79 1014.5
20260508051639 6 256 0.0 0.0 0.00 0.05 0.00 79 1014.4
20260508051135 6 256 0.0 0.0 0.00 0.05 0.00 78 1014.4
20260508050639 7 256 0.0 0.0 0.00 0.05 0.00 78 1014.3
20260508050136 7 256 0.0 0.0 0.00 0.05 0.00 78 1014.2
20260508045638 7 256 0.0 0.0 0.00 0.05 0.00 77 1014.1
20260508045135 7 253 0.0 0.0 0.00 0.05 0.00 78 1014.0
20260508044642 7 253 0.0 0.0 0.00 0.05 0.00 78 1014.0
20260508044136 7 253 0.0 0.0 0.00 0.05 0.00 78 1013.9
20260508043638 7 252 0.0 0.0 0.00 0.05 0.00 79 1014.0
20260508043136 6 252 0.0 0.0 0.00 0.05 0.00 79 1014.0
20260508042636 6 252 0.0 0.0 0.00 0.05 0.00 80 1014.1
20260508042136 6 250 0.0 0.0 0.00 0.05 0.00 81 1014.0
20260508041636 6 250 0.0 0.0 0.00 0.05 0.00 80 1014.0
20260508041145 6 250 0.0 0.0 0.00 0.05 0.00 80 1014.0
20260508040639 7 248 0.0 0.0 0.00 0.08 0.00 80 1014.0
20260508040136 7 248 0.0 0.0 0.00 0.08 0.00 80 1014.0
20260508035635 7 248 0.0 0.0 0.00 0.08 0.00 79 1013.9
20260508035136 7 247 0.0 0.0 0.00 0.08 0.00 79 1013.8
20260508034638 7 239 0.0 0.0 0.00 0.08 0.00 79 1013.7
20260508034139 7 239 0.0 0.0 0.00 0.08 0.00 80 1013.7
20260508033635 7 239 0.0 0.0 0.00 0.08 0.00 79 1013.8
20260508033140 7 239 0.0 0.0 0.00 0.08 0.00 79 1013.7
20260508032639 7 238 0.0 0.0 0.00 0.08 0.00 79 1013.8
20260508032142 7 238 0.0 0.0 0.00 0.08 0.00 78 1013.8
20260508031636 8 236 0.0 0.0 0.00 0.08 0.00 78 1013.7
20260508031136 8 236 0.0 0.0 0.00 0.08 0.00 79 1013.6
20260508030644 8 235 0.0 0.0 0.00 0.08 0.00 78 1013.5
20260508030136 8 233 0.0 0.0 0.00 0.08 0.00 77 1013.6
20260508025638 8 233 0.0 0.0 0.00 0.08 0.00 77 1013.5
20260508025136 8 233 0.0 0.0 0.00 0.10 0.00 77 1013.5
20260508024638 9 222 0.0 0.0 0.00 0.10 0.00 75 1013.5
20260508024136 9 221 0.0 0.0 0.00 0.10 0.00 76 1013.3
20260508023638 9 221 0.0 0.0 0.00 0.10 0.00 75 1013.2
20260508023139 9 211 0.0 0.0 0.00 0.10 0.00 75 1013.1
20260508022635 9 211 0.0 0.0 0.00 0.10 0.00 74 1012.9
20260508022136 9 208 0.0 0.0 0.00 0.10 0.00 74 1013.0
20260508021635 9 184 0.0 0.0 0.00 0.10 0.00 73 1012.9
20260508021139 9 229 0.0 0.0 0.00 0.10 0.00 73 1012.8
20260508020638 9 208 0.0 0.0 0.00 0.10 0.00 76 1012.7
20260508020136 9 209 0.0 0.0 0.00 0.13 0.00 76 1012.6
20260508015635 9 209 0.0 0.0 0.00 0.13 0.00 76 1012.4
20260508015139 9 208 0.0 0.0 0.00 0.18 0.00 76 1012.3
20260508014638 9 235 0.0 0.0 0.00 0.20 0.00 78 1012.2
20260508014136 9 237 0.0 0.0 0.00 0.23 0.00 77 1012.2
20260508013635 9 258 0.0 0.0 0.00 0.25 0.00 79 1012.1
20260508013136 9 257 0.0 0.0 0.00 0.28 0.00 79 1012.0
20260508012635 8 288 0.0 0.0 0.00 0.36 0.00 78 1012.1
20260508012136 8 290 0.0 0.0 0.00 0.36 0.00 80 1012.1
20260508011641 9 265 0.0 0.0 0.00 0.36 0.00 81 1012.0
20260508011136 9 265 0.0 0.0 0.00 0.41 0.00 80 1011.7
20260508010635 8 264 0.0 0.0 0.00 0.41 0.00 81 1011.7
20260508010135 9 262 0.0 0.0 0.00 0.46 0.00 81 1011.6
20260508005635 9 261 0.0 0.0 0.00 0.53 0.00 81 1011.5
20260508005138 9 261 0.0 0.0 0.00 0.58 0.00 81 1011.6
20260508004635 9 234 0.0 0.0 0.00 0.61 0.00 80 1011.6
20260508004135 10 232 0.0 0.0 0.00 0.61 0.00 79 1011.6
20260508003639 10 232 0.0 0.0 0.00 0.61 0.00 79 1011.6
20260508003135 10 221 0.0 0.0 0.00 0.61 0.00 78 1011.6
20260508002635 10 221 0.0 0.0 0.00 0.61 0.00 77 1011.6
20260508002136 10 221 0.0 0.0 0.00 0.61 0.00 76 1011.6
20260508001638 11 221 0.0 0.0 0.00 0.61 0.00 75 1011.5
20260508001135 11 221 0.0 0.0 0.00 0.61 0.00 75 1011.4
20260508000635 11 221 0.0 0.0 0.00 0.61 0.00 74 1011.4
20260508000142 11 220 0.0 0.0 0.00 0.61 0.00 73 1011.3
20260507235641 12 220 0.0 0.0 0.00 0.61 0.00 73 1011.3
20260507235138 12 220 0.0 0.0 0.00 0.61 0.00 70 1011.3
20260507234635 12 333 0.0 0.0 0.00 0.61 0.00 72 1011.2
20260507234135 12 334 0.0 0.0 0.00 0.61 0.00 71 1011.1
20260507233641 13 333 0.0 0.0 0.00 0.61 0.00 69 1011.0
20260507233136 13 332 0.0 0.0 0.00 0.61 0.00 67 1011.1
20260507232635 13 330 0.0 0.0 0.00 0.61 0.00 67 1010.9
20260507232135 13 330 0.0 0.0 0.00 0.61 0.00 65 1010.9
20260507231635 13 331 0.0 0.0 0.00 0.61 0.00 65 1010.9
20260507231135 13 331 0.0 0.0 0.00 0.61 0.00 63 1010.9
20260507230638 13 244 0.0 0.0 0.00 0.61 0.00 64 1010.8
20260507230138 13 171 0.0 0.0 0.00 0.61 0.00 62 1010.6
20260507225635 13 266 0.0 0.0 0.00 0.61 0.00 65 1010.5
20260507225141 14 263 0.0 0.0 0.00 0.61 0.00 65 1010.6
20260507224635 14 263 0.0 0.0 0.00 0.61 0.00 63 1010.5
20260507224138 14 256 0.0 0.0 0.00 0.61 0.00 61 1010.5
20260507223638 15 291 0.0 0.0 0.00 0.61 0.00 60 1010.6
20260507223136 15 290 0.0 0.0 0.00 0.61 0.00 60 1010.5
20260507222644 15 298 0.0 0.0 0.00 0.61 0.00 62 1010.5
20260507222138 15 175 0.0 0.0 0.00 0.61 0.00 63 1010.2
20260507221638 15 342 0.0 0.0 0.00 0.61 0.00 62 1010.3
20260507221138 14 342 0.0 0.0 0.00 0.61 0.00 63 1010.3
20260507220635 14 317 0.0 0.0 0.00 0.61 0.00 61 1010.1
20260507220135 14 77 0.0 0.0 0.00 0.61 0.00 65 1010.3
20260507215635 15 192 0.0 0.0 0.00 0.61 0.00 64 1010.2
20260507215138 15 74 0.0 0.0 0.00 0.61 0.00 63 1010.1
20260507214644 15 313 0.0 0.0 0.00 0.61 0.00 64 1010.0
20260507214138 15 215 0.0 0.0 0.00 0.61 0.00 67 1009.9
20260507213635 15 185 0.0 0.0 0.00 0.61 0.00 66 1009.9
20260507213141 15 223 0.0 0.0 0.00 0.61 0.00 65 1009.8
20260507212635 15 307 0.0 0.0 0.00 0.61 0.00 64 1009.7
20260507212135 15 146 0.0 0.0 0.00 0.61 0.00 62 1009.7
20260507211635 15 286 0.0 0.0 0.00 0.61 0.00 62 1009.6
20260507211142 15 249 0.0 0.0 0.00 0.61 0.00 62 1009.4
20260507210635 15 285 0.0 0.0 0.00 0.61 0.00 66 1009.4
20260507210135 15 338 0.0 0.0 0.00 0.61 0.00 64 1009.3
20260507205635 15 270 0.0 0.0 0.00 0.61 0.00 65 1009.5
20260507205138 15 333 0.0 0.0 0.00 0.61 0.00 66 1009.5
20260507204638 15 261 0.0 0.0 0.00 0.61 0.00 64 1009.3
20260507204135 15 291 0.0 0.0 0.00 0.61 0.00 66 1009.2
20260507203638 15 264 0.0 0.0 0.00 0.61 0.00 66 1009.1
20260507203144 15 306 0.0 0.0 0.00 0.61 0.00 66 1009.0
20260507202635 15 245 0.0 0.0 0.00 0.61 0.00 66 1009.2
20260507202141 15 248 0.0 0.0 0.00 0.61 0.00 66 1009.2
20260507201638 15 124 0.0 0.0 0.00 0.61 0.00 68 1009.1
20260507201138 15 261 0.0 0.0 0.00 0.61 0.00 67 1009.0
20260507200638 15 182 0.0 0.0 0.00 0.61 0.00 70 1009.0
20260507200138 15 311 0.0 0.0 0.00 0.61 0.00 71 1009.0
20260507195638 15 132 0.0 0.0 0.00 0.61 0.00 68 1009.2
20260507195138 15 247 0.0 0.0 0.00 0.61 0.00 69 1009.4
20260507194635 15 257 0.0 0.0 0.00 0.61 0.00 72 1009.3
20260507194135 15 235 0.0 0.0 0.00 0.61 0.00 73 1009.4
20260507193638 14 51 0.0 0.0 0.00 0.61 0.00 75 1009.6
20260507193138 13 257 0.0 0.0 0.00 0.61 0.00 81 1009.7
20260507192644 13 255 0.0 0.0 0.00 0.61 0.00 77 1009.7
20260507192144 13 289 0.0 0.0 0.00 0.61 0.00 78 1009.8
20260507191641 13 225 0.0 0.0 0.00 0.61 0.00 78 1010.0
20260507191144 13 300 0.0 0.0 0.00 0.61 0.00 79 1010.2
20260507190641 12 194 0.0 0.0 0.00 0.61 0.00 80 1010.1
20260507190135 12 209 0.0 0.0 0.00 0.61 0.00 82 1010.2
20260507185638 12 212 0.0 0.0 0.00 0.61 0.00 85 1010.2
20260507185138 12 214 0.0 0.0 0.00 0.61 0.00 82 1010.3
20260507184635 12 214 0.0 0.0 0.00 0.61 0.00 82 1010.3
20260507184135 12 213 0.0 0.0 0.00 0.61 0.00 82 1010.4
20260507183644 12 217 0.0 0.0 0.00 0.61 0.00 82 1010.4
20260507183141 12 222 0.0 0.0 0.00 0.61 0.00 82 1010.4
20260507182638 12 222 0.0 0.0 0.00 0.61 0.00 84 1010.5
20260507182135 12 221 0.0 0.0 0.00 0.61 0.00 84 1010.3
20260507181638 12 178 0.0 0.0 0.00 0.61 0.00 84 1010.5
20260507181138 12 177 0.0 0.0 0.00 0.61 0.00 85 1010.4
20260507180638 11 177 0.0 0.0 0.00 0.61 0.00 83 1010.5
20260507180138 11 201 0.0 0.0 0.00 0.61 0.00 85 1010.4
20260507175638 11 201 0.0 0.0 0.00 0.61 0.00 84 1010.4
20260507175135 11 201 0.0 0.0 0.00 0.61 0.00 85 1010.5
20260507174635 11 201 0.0 0.0 0.00 0.61 0.00 85 1010.4
20260507174135 11 201 0.0 0.0 0.00 0.61 0.00 86 1010.4
20260507173638 11 201 0.0 0.0 0.00 0.61 0.00 85 1010.5
20260507173138 11 202 0.0 0.0 0.00 0.61 0.00 85 1010.5
20260507172635 11 202 0.0 0.0 0.00 0.61 0.00 84 1010.3
20260507172138 11 201 0.0 0.0 0.00 0.61 0.00 85 1010.5
20260507171641 11 201 0.0 0.0 0.00 0.61 0.00 85 1010.6
20260507171135 11 227 0.0 0.0 0.00 0.61 0.00 85 1010.6
20260507170638 11 227 0.0 0.0 0.00 0.61 0.00 85 1010.7
20260507170141 11 264 0.0 0.0 0.00 0.61 0.00 85 1010.6
20260507165638 11 195 0.0 0.0 0.00 0.64 0.00 85 1010.6
20260507165138 11 194 0.0 0.0 0.00 0.64 0.00 85 1010.6
20260507164635 11 96 0.0 0.0 0.00 0.64 0.00 87 1010.7
20260507164138 11 271 0.0 0.0 0.00 0.66 0.00 86 1010.7
20260507163641 11 259 0.0 0.0 0.00 0.66 0.00 85 1010.7
20260507163138 11 288 0.0 0.0 0.00 0.66 0.00 87 1010.7
20260507122611 11 188 0.0 0.0 0.00 0.81 0.00 91 1011.5
20260507122111 11 188 0.0 0.0 0.00 0.81 0.00 91 1011.5
20260507121611 11 188 0.0 0.0 0.00 0.81 0.00 91 1011.4
20260507121111 11 188 0.0 0.0 0.00 0.81 0.00 91 1011.6
20260507120620 11 188 0.0 0.0 0.00 0.81 0.00 91 1011.4
20260507120117 11 188 0.0 0.0 0.00 0.81 0.00 91 1011.2
20260507115611 11 188 0.0 0.0 0.00 0.81 0.00 91 1011.2
20260507115111 11 188 0.0 0.0 0.00 0.81 0.00 92 1011.4
20260507114611 11 188 0.0 0.0 0.00 0.81 0.00 92 1011.3
20260507114117 11 188 0.0 0.0 0.00 0.81 0.00 93 1011.1
20260507113615 12 187 0.0 0.0 0.00 0.81 0.00 93 1011.3
20260507113111 12 187 0.0 0.0 0.00 0.81 0.00 93 1011.2
20260507112611 12 187 0.0 0.0 0.00 0.81 0.00 93 1011.3
20260507112114 12 187 0.0 0.0 0.00 0.81 0.00 93 1011.5
20260507111611 12 187 0.0 0.0 0.00 0.81 0.00 93 1011.1
20260507111111 12 187 0.0 0.0 0.00 0.81 0.00 93 1011.1
20260507110611 12 187 0.0 0.0 0.00 0.81 0.00 94 1010.7
20260507110114 12 187 0.0 0.0 0.00 0.81 0.00 94 1010.7
20260507105612 12 187 0.0 0.0 0.00 0.81 0.00 94 1010.8
20260507105111 12 187 0.0 0.0 0.00 0.81 0.00 93 1010.7
20260507104611 12 187 0.0 0.0 0.00 0.81 0.00 93 1010.8
20260507104111 12 187 0.0 0.0 0.00 0.81 0.00 93 1010.6
20260507103614 12 187 0.0 0.0 0.00 0.81 0.00 93 1010.6
20260507103111 12 187 0.0 0.0 0.00 0.81 0.00 93 1010.8
20260507102611 12 187 0.0 0.0 0.00 0.81 0.00 93 1010.4